De Queen, AR

4:00 PM CST on December 07, 2019 (GMT -0600)
Helms Sevier County

Weather History for KDEQ - November, 2019

Change the Weather History Date:

Saturday, November 16, 2019

  Actual Average Record
Temperature  
Mean Temperature 42 °F 52 °F  
Max Temperature 59 °F 65 °F 84 °F (2016)
Min Temperature 26 °F 39 °F 19 °F (1970)
Degree Days  
Heating Degree Days 22 13  
Month to date heating degree days 277 163  
Since 1 July heating degree days 451 296  
Cooling Degree Days 0 0  
Month to date cooling degree days 1 5  
Year to date cooling degree days 2314 1939  
Moisture  
Dew Point 29 °F    
Average Humidity 78    
Maximum Humidity 93    
Minimum Humidity 28    
Precipitation  
Precipitation 0.00 in 0.18 in 6.50 in (1978)
Month to date precipitation 1.66 2.74  
Year to date precipitation 48.39 42.46  
Snow  
Snow 0.00 in - - ()
Month to date snowfall 0.0  
Since 1 July snowfall 0.0  
Since 1 September snowfall 0.0  
Snow Depth 0.00 in    
Sea Level Pressure  
Sea Level Pressure 30.24 in    
Wind  
Wind Speed 0 mph ()    
Max Wind Speed 9 mph    
Max Gust Speed 12 mph    
Visibility 6.5 miles    
Events Fog    
T = Trace of Precipitation, MM = Missing Value Source: Averaged Metar Reports

Daily Weather History Graph

Daily Weather History Graph

Search for Another Location

Airport or City:

Astronomy

Nov. 16, 2019 Rise Set
Actual Time 6:50 AM CST 5:13 PM CST
Civil Twilight 6:24 AM CST 5:40 PM CST
Nautical Twilight 5:54 AM CST 6:10 PM CST
Astronomical Twilight 5:24 AM CST 6:39 PM CST
Moon 8:51 PM CST (11/16) 10:40 AM CST (11/16)
Length of Visible Light 11h 15m
Length of Day
10h 22m
Waning Gibbous, 82% of the Moon is Illuminated
Nov 16
Waning Gibbous
Nov 19
Last Quarter
Nov 26
New
Dec 4
First Quarter
Dec 11
Full

Hourly Weather History & Observations

Time (CST) Temp. Windchill Dew Point Humidity Pressure Visibility Wind Dir Wind Speed Gust Speed Precip Events Conditions
12:01 AM 30.9 °F - 28.9 °F 92% 30.31 in 0.5 mi Calm Calm - N/A Fog Light Freezing Fog
12:24 AM 30.9 °F - 28.0 °F 89% 30.30 in 3.0 mi Calm Calm - N/A   Partly Cloudy
12:53 AM 30.0 °F - 28.0 °F 92% 30.30 in 5.0 mi Calm Calm - N/A   Clear
1:05 AM 30.0 °F - 28.0 °F 92% 30.30 in 1.8 mi Calm Calm - N/A   Clear
1:15 AM 30.0 °F - 28.0 °F 92% 30.30 in 0.5 mi Calm Calm - N/A Fog Light Freezing Fog
1:27 AM 30.0 °F - 27.0 °F 88% 30.30 in 3.0 mi Calm Calm - N/A   Clear
1:47 AM 28.4 °F - 26.6 °F 93% 30.30 in 1.5 mi Calm Calm - N/A   Clear
1:53 AM 28.9 °F - 26.1 °F 89% 30.30 in 0.8 mi Calm Calm - N/A   Clear
2:02 AM 28.9 °F - 27.0 °F 92% 30.30 in 2.0 mi Calm Calm - N/A   Clear
2:10 AM 30.0 °F - 27.0 °F 88% 30.30 in 3.0 mi Calm Calm - N/A   Clear
3:53 AM 28.0 °F - 26.1 °F 92% 30.29 in 10.0 mi Calm Calm - N/A   Clear
4:53 AM 27.0 °F - 25.0 °F 92% 30.29 in 8.0 mi Calm Calm - N/A   Clear
5:53 AM 27.0 °F - 25.0 °F 92% 30.30 in 10.0 mi Calm Calm - N/A   Clear
6:53 AM 28.0 °F - 25.0 °F 88% 30.30 in 7.0 mi Calm Calm - N/A   Clear
7:53 AM 32.0 °F - 28.9 °F 88% 30.30 in 10.0 mi Calm Calm - N/A   Clear
8:53 AM 41.0 °F - 34.0 °F 76% 30.31 in 10.0 mi Calm Calm - N/A   Clear
9:53 AM 46.0 °F 41.9 °F 30.0 °F 54% 30.31 in 10.0 mi ESE 8.1 mph - N/A   Clear
11:53 AM 53.1 °F - 28.0 °F 38% 30.25 in 10.0 mi ESE 3.5 mph - N/A   Clear
1:53 PM 57.9 °F - 27.0 °F 31% 30.18 in 10.0 mi Calm Calm - N/A   Unknown
3:53 PM 57.9 °F - 28.0 °F 32% 30.14 in 10.0 mi SE 3.5 mph - N/A   Clear
4:53 PM 55.9 °F - 28.0 °F 34% 30.12 in 10.0 mi SE 3.5 mph - N/A   Clear
5:53 PM 46.0 °F - 32.0 °F 58% 30.13 in 10.0 mi Calm Calm - N/A   Clear
6:53 PM 41.0 °F - 33.1 °F 73% 30.14 in 10.0 mi Calm Calm - N/A   Clear
7:53 PM 37.0 °F 34.5 °F 33.1 °F 86% 30.14 in 10.0 mi ENE 3.5 mph - N/A   Clear
8:53 PM 36.0 °F - 33.1 °F 89% 30.14 in 7.0 mi Calm Calm - N/A   Clear
9:53 PM 36.0 °F - 32.0 °F 86% 30.13 in 8.0 mi Calm Calm - N/A   Clear
10:53 PM 34.0 °F - 30.9 °F 89% 30.12 in 5.0 mi Calm Calm - N/A   Clear
11:53 PM 34.0 °F - 30.9 °F 89% 30.12 in 5.0 mi Calm Calm - N/A   Clear